When you browse on this site, cookies collect data to enhance your experience and personalize the content and advertising you see.
Visit our Privacy Policy to learn more. By continuing to use the site, you agree to this use of cookies and data.
  • In Lithuania
  • List of Countries
  • For 7 days
  • Water Temperature
  • Satellite Maps
  • Weather Map
  • Weather Widgets
  • user-avatar
    Login

    Hourly Weather Algiers

    Today, 18 December, Tuesday

    Time Temperature Precipitation Wind Pressure Humidity
    00:00 +10°C° 0 mm 2 mps 758 mmHg 77%
    01:00 +10°C° 0 mm 2 mps 758 mmHg 74%
    02:00 +10°C° 0 mm 2 mps 758 mmHg 71%
    03:00 +10°C° 0 mm 3 mps 758 mmHg 67%
    04:00 +10°C° 0 mm 3 mps 758 mmHg 65%
    05:00 +10°C° 0 mm 3 mps 757 mmHg 63%
    06:00 +9°C° 0 mm 3 mps 757 mmHg 61%
    07:00 +11°C° 0 mm 3 mps 757 mmHg 60%
    08:00 +12°C° 0 mm 3 mps 757 mmHg 59%
    09:00 +13°C° 0 mm 3 mps 757 mmHg 58%
    10:00 +16°C° 0 mm 3 mps 756 mmHg 54%
    11:00 +18°C° 0 mm 3 mps 756 mmHg 49%
    12:00 +19°C° 0 mm 2 mps 756 mmHg 44%
    13:00 +20°C° 0 mm 2 mps 755 mmHg 45%
    14:00 +20°C° 0 mm 2 mps 755 mmHg 46%
    15:00 +20°C° 0 mm 2 mps 755 mmHg 47%
    16:00 +18°C° 0 mm 2 mps 755 mmHg 50%
    17:00 +16°C° 0 mm 2 mps 755 mmHg 52%
    18:00 +14°C° 0 mm 3 mps 755 mmHg 55%
    19:00 +13°C° 0 mm 3 mps 755 mmHg 54%
    20:00 +14°C° 0 mm 2 mps 755 mmHg 53%
    21:00 +14°C° 0 mm 2 mps 755 mmHg 53%
    22:00 +13°C° 0 mm 3 mps 755 mmHg 52%
    23:00 +12°C° 0 mm 3 mps 755 mmHg 51%

    Tomorrow, 19 December, Wednesday

    Time Temperature Precipitation Wind Pressure Humidity
    00:00 +12°C° 0 mm 3 mps 755 mmHg 51%
    01:00 +12°C° 0 mm 3 mps 755 mmHg 51%
    02:00 +12°C° 0 mm 3 mps 754 mmHg 52%
    03:00 +12°C° 0 mm 3 mps 754 mmHg 52%
    04:00 +11°C° 0 mm 3 mps 754 mmHg 53%
    05:00 +11°C° 0 mm 3 mps 754 mmHg 54%
    06:00 +11°C° 0 mm 3 mps 755 mmHg 55%
    07:00 +12°C° 0 mm 3 mps 755 mmHg 55%
    08:00 +13°C° 0 mm 3 mps 755 mmHg 55%
    09:00 +14°C° 0 mm 3 mps 755 mmHg 55%
    10:00 +17°C° 0 mm 2 mps 755 mmHg 52%
    11:00 +18°C° 0 mm 2 mps 755 mmHg 48%
    12:00 +20°C° 0 mm 2 mps 755 mmHg 44%
    13:00 +20°C° 0 mm 2 mps 755 mmHg 45%
    14:00 +20°C° 0 mm 2 mps 754 mmHg 45%
    15:00 +21°C° 0 mm 2 mps 754 mmHg 46%
    16:00 +19°C° 0 mm 2 mps 754 mmHg 51%
    17:00 +17°C° 0 mm 2 mps 754 mmHg 57%
    18:00 +15°C° 0 mm 2 mps 755 mmHg 62%
    19:00 +15°C° 0 mm 2 mps 755 mmHg 62%
    20:00 +14°C° 0 mm 2 mps 755 mmHg 62%
    21:00 +14°C° 0 mm 2 mps 755 mmHg 61%
    22:00 +14°C° 0 mm 2 mps 755 mmHg 61%
    23:00 +14°C° 0 mm 2 mps 755 mmHg 61%

    Day after tomorrow, 20 December, Thursday

    Time Temperature Precipitation Wind Pressure Humidity
    00:00 +14°C° 0 mm 2 mps 755 mmHg 61%
    01:00 +14°C° 0 mm 2 mps 755 mmHg 60%
    02:00 +14°C° 0 mm 2 mps 755 mmHg 60%
    03:00 +14°C° 0 mm 2 mps 755 mmHg 59%
    04:00 +13°C° 0.1 mm 2 mps 755 mmHg 62%
    05:00 +13°C° 0.1 mm 2 mps 755 mmHg 64%
    06:00 +13°C° 0.1 mm 1 mps 755 mmHg 67%
    07:00 +14°C° 0 mm 1 mps 756 mmHg 66%
    08:00 +15°C° 0 mm 1 mps 756 mmHg 65%
    09:00 +16°C° 0 mm 1 mps 757 mmHg 65%
    10:00 +18°C° 0 mm 1 mps 757 mmHg 64%
    11:00 +18°C° 0 mm 1 mps 756 mmHg 64%
    12:00 +18°C° 0 mm 2 mps 756 mmHg 64%
    13:00 +18°C° 0.1 mm 2 mps 756 mmHg 66%
    14:00 +18°C° 0.1 mm 2 mps 756 mmHg 68%
    15:00 +18°C° 0.1 mm 2 mps 756 mmHg 69%
    16:00 +17°C° 0.1 mm 2 mps 757 mmHg 75%
    17:00 +16°C° 0.1 mm 2 mps 757 mmHg 81%
    18:00 +14°C° 0.1 mm 3 mps 757 mmHg 87%
    19:00 +14°C° 0 mm 2 mps 758 mmHg 89%
    20:00 +14°C° 0 mm 2 mps 758 mmHg 90%
    21:00 +13°C° 0 mm 2 mps 759 mmHg 92%
    22:00 +13°C° 0 mm 2 mps 759 mmHg 92%
    23:00 +13°C° 0 mm 2 mps 759 mmHg 92%

    21 December, Friday

    Time Temperature Precipitation Wind Pressure Humidity
    00:00 +12°C° 0 mm 1 mps 759 mmHg 92%
    01:00 +12°C° 0 mm 1 mps 759 mmHg 92%
    02:00 +12°C° 0 mm 1 mps 759 mmHg 92%
    03:00 +12°C° 0 mm 1 mps 759 mmHg 92%
    04:00 +11°C° 0 mm 1 mps 760 mmHg 92%
    05:00 +11°C° 0 mm 1 mps 760 mmHg 92%
    06:00 +11°C° 0 mm 1 mps 760 mmHg 92%
    07:00 +12°C° 0 mm 1 mps 760 mmHg 87%
    08:00 +13°C° 0 mm 1 mps 761 mmHg 82%
    09:00 +14°C° 0 mm 1 mps 761 mmHg 77%
    10:00 +15°C° 0 mm 1 mps 761 mmHg 69%
    11:00 +16°C° 0 mm 1 mps 761 mmHg 61%
    12:00 +16°C° 0 mm 0 mps 760 mmHg 52%
    13:00 +18°C° 0 mm 1 mps 760 mmHg 54%
    14:00 +18°C° 0 mm 1 mps 760 mmHg 55%
    15:00 +17°C° 0 mm 2 mps 760 mmHg 56%
    16:00 +16°C° 0 mm 2 mps 760 mmHg 63%
    17:00 +15°C° 0 mm 2 mps 760 mmHg 70%
    18:00 +13°C° 0 mm 1 mps 760 mmHg 78%
    19:00 +13°C° 0 mm 1 mps 760 mmHg 76%
    20:00 +13°C° 0 mm 1 mps 761 mmHg 75%
    21:00 +13°C° 0 mm 1 mps 761 mmHg 73%
    22:00 +13°C° 0 mm 2 mps 761 mmHg 72%
    23:00 +13°C° 0 mm 2 mps 760 mmHg 71%

    22 December, Saturday

    Time Temperature Precipitation Wind Pressure Humidity
    00:00 +13°C° 0 mm 2 mps 760 mmHg 70%
    01:00 +13°C° 0 mm 2 mps 760 mmHg 69%
    02:00 +12°C° 0 mm 2 mps 760 mmHg 69%
    03:00 +12°C° 0 mm 2 mps 760 mmHg 68%
    04:00 +12°C° 0 mm 2 mps 760 mmHg 69%
    05:00 +12°C° 0 mm 2 mps 760 mmHg 69%
    06:00 +12°C° 0 mm 2 mps 760 mmHg 70%
    07:00 +13°C° 0 mm 2 mps 760 mmHg 68%
    08:00 +14°C° 0 mm 2 mps 760 mmHg 66%
    09:00 +15°C° 0 mm 2 mps 760 mmHg 64%
    10:00 +17°C° 0 mm 2 mps 760 mmHg 58%
    11:00 +18°C° 0 mm 2 mps 760 mmHg 51%
    12:00 +21°C° 0 mm 1 mps 759 mmHg 45%
    13:00 +21°C° 0 mm 1 mps 759 mmHg 45%
    14:00 +21°C° 0 mm 1 mps 759 mmHg 44%
    15:00 +21°C° 0 mm 1 mps 758 mmHg 44%
    16:00 +19°C° 0 mm 1 mps 758 mmHg 48%
    17:00 +18°C° 0 mm 1 mps 758 mmHg 52%
    18:00 +15°C° 0 mm 2 mps 758 mmHg 56%
    19:00 +15°C° 0 mm 2 mps 759 mmHg 55%
    20:00 +15°C° 0 mm 2 mps 759 mmHg 54%
    21:00 +14°C° 0 mm 2 mps 759 mmHg 53%
    22:00 +14°C° 0 mm 2 mps 759 mmHg 52%
    23:00 +14°C° 0 mm 2 mps 758 mmHg 51%

    23 December, Sunday

    Time Temperature Precipitation Wind Pressure Humidity
    00:00 +14°C° 0 mm 2 mps 758 mmHg 50%
    01:00 +13°C° 0 mm 2 mps 758 mmHg 50%
    02:00 +13°C° 0 mm 2 mps 758 mmHg 51%
    03:00 +13°C° 0 mm 2 mps 757 mmHg 51%
    04:00 +13°C° 0 mm 2 mps 757 mmHg 51%
    05:00 +13°C° 0 mm 2 mps 758 mmHg 51%
    06:00 +13°C° 0 mm 2 mps 758 mmHg 51%
    07:00 +14°C° 0 mm 2 mps 758 mmHg 50%
    08:00 +15°C° 0 mm 2 mps 758 mmHg 49%
    09:00 +16°C° 0 mm 2 mps 758 mmHg 49%
    10:00 +18°C° 0 mm 2 mps 758 mmHg 44%
    11:00 +20°C° 0 mm 1 mps 758 mmHg 39%
    12:00 +22°C° 0 mm 1 mps 757 mmHg 34%
    13:00 +22°C° 0 mm 1 mps 757 mmHg 35%
    14:00 +22°C° 0 mm 1 mps 757 mmHg 36%
    15:00 +22°C° 0 mm 1 mps 757 mmHg 37%
    16:00 +20°C° 0 mm 1 mps 757 mmHg 39%
    17:00 +18°C° 0 mm 1 mps 757 mmHg 42%
    18:00 +16°C° 0 mm 2 mps 757 mmHg 45%
    19:00 +15°C° 0 mm 2 mps 757 mmHg 44%
    20:00 +15°C° 0 mm 2 mps 757 mmHg 43%
    21:00 +15°C° 0 mm 2 mps 757 mmHg 42%
    22:00 +14°C° 0 mm 2 mps 757 mmHg 41%
    23:00 +14°C° 0 mm 2 mps 757 mmHg 40%
    Show more